#timestamp,LO_Frequency,Hit,StdDev 
1586224815.6,286046995.3,P
1586224835.4,286046997.6,N
1586224855.3,286046996.2,N
1586224875.1,286046994.8,N
1586224895.9,286046992.5,Y
1586224915.7,286046996.7,P
1586224935.5,286047001.2,P
1586224955.4,286046998.2,N
1586224975.2,286047000.8,N
1586224995.1,286046998.8,N
1586224996.0,286046998.8,N
1586225015.8,286046996.5,N
1586225035.6,286046998.1,N
1586225055.5,286047000.8,N
1586225075.3,286046998.6,N
1586225095.2,286047000.8,N
1586225115.9,286047001.3,N
1586225135.7,286046998.3,N
1586225155.6,286046998.9,N
1586225175.4,286047000.4,N
1586225195.2,286046998.3,N
1586225215.1,286046997.6,N
1586225216.0,286046997.6,N
1586225235.8,286046995.2,Y
1586225255.7,286046997.6,P
1586225275.5,286046995.5,P
1586225295.3,286046995.5,P
1586225315.2,286046995.3,Y
1586225335.0,286046998.4,P
1586225335.9,286046998.4,N
1586225355.8,286046998.3,N
1586225375.6,286046998.2,N
1586225395.4,286046998.3,N
1586225415.3,286046998.4,N
1586225435.1,286047000.9,N
1586225455.9,286047002.6,N
1586225475.7,286047000.1,N
1586225495.5,286047000.3,N
1586225515.4,286046999.5,N
1586225535.2,286046999.4,N
1586225555.0,286046998.9,N
1586225556.0,286046998.9,N
1586225575.8,286047011.9,Y
1586225595.6,286046998.8,P
1586225615.5,286046997.4,P
1586225635.3,286046996.8,P
1586225655.1,286046997.8,N
1586225675.9,286046995.7,Y
1586225695.7,286046999.2,P
1586225715.6,286046997.3,P
1586225735.4,286046996.6,P
1586225755.2,286046997.5,N
1586225775.1,286046998.0,N
1586225776.0,286046998.0,N
1586225795.8,286046995.0,Y
1586225815.7,286046998.2,P
1586225835.5,286046999.2,P
1586225855.3,286046999.4,N
1586225875.2,286046997.8,Y
1586225895.0,286046998.7,P
1586225895.9,286046998.7,P
1586225915.8,286046999.1,P
1586225935.6,286046998.5,Y
1586225955.4,286047000.6,P
1586225975.3,286047000.5,N
1586225995.1,286046998.3,N
1586226015.8,286046998.2,N
1586226035.7,286047000.1,N
1586226055.5,286046996.5,Y
1586226075.4,286046999.5,P
1586226095.2,286046997.1,P
1586226115.1,286046995.3,P
1586226116.0,286046995.3,N
1586226135.8,286046996.9,N
1586226155.6,286046997.0,N
1586226175.5,286046996.6,N
1586226195.3,286046996.8,N
1586226215.1,286046998.8,N
1586226235.9,286046999.4,N
1586226255.7,286047001.1,N
1586226275.6,286047001.5,N
1586226295.4,286047000.0,N
1586226315.2,286047000.0,N
1586226335.1,286047001.8,N
1586226336.0,286047001.8,N
1586226355.8,286047002.2,N
1586226375.7,286047004.4,N
1586226395.5,286047002.2,N
1586226415.3,286047000.9,N
1586226435.2,286047001.1,N
1586226455.0,286046998.2,N
1586226455.9,286046998.2,N
1586226475.7,286047001.2,N
1586226495.6,286047000.6,N
1586226515.4,286046998.4,N
1586226535.3,286046998.5,N
1586226555.1,286046998.7,N
1586226556.0,286046998.7,N
1586226575.8,286047000.1,N
1586226595.7,286047001.6,N
1586226615.5,286047002.2,N
1586226635.3,286046999.1,N
1586226655.2,286046999.7,N
1586226675.0,286047000.0,N
1586226675.9,286047000.0,N
1586226695.8,286047003.7,N
1586226715.6,286047006.8,Y
1586226735.4,286047004.8,P
1586226755.3,286046999.8,N
1586226775.1,286047001.8,N
1586226795.9,286046999.7,N
1586226815.7,286047001.0,N
1586226835.5,286047001.9,N
1586226855.4,286047001.8,N
1586226875.2,286047004.2,N
1586226895.1,286047005.5,Y
1586226896.0,286047005.5,P
1586226915.8,286047003.3,N
1586226935.6,286047004.4,N
1586226955.5,286047002.9,N
1586226975.3,286047004.9,Y
1586226995.1,286047001.5,P
1586227015.9,286047002.1,N
1586227035.7,286047001.8,N
1586227055.6,286047001.6,N
1586227075.4,286047002.7,Y
1586227095.3,286046998.8,P
1586227115.1,286047000.6,N
1586227116.0,286047000.6,N
1586227135.8,286047001.0,N
1586227155.7,286046998.2,N
1586227175.5,286047001.2,N
1586227195.3,286046998.2,N
1586227215.2,286047001.6,N
1586227235.0,286047001.6,N
1586227235.9,286047001.6,N
1586227255.8,286047000.2,N
1586227275.6,286047000.6,N
1586227295.4,286047000.6,N
1586227315.3,286046999.5,N
1586227335.1,286046994.9,Y
1586227355.9,286046997.4,P
1586227375.7,286046996.9,N
1586227395.5,286046998.2,N
1586227415.4,286047001.2,N
1586227435.2,286046999.9,N
1586227455.0,286046998.5,N
1586227455.9,286046998.5,N
1586227475.8,286047000.8,N
1586227495.6,286046999.3,N
1586227515.5,286046996.6,N
1586227535.3,286046997.7,N
1586227555.1,286046994.9,Y
1586227575.9,286046998.7,P
1586227595.7,286046998.6,P
1586227615.5,286047000.5,P
1586227635.4,286047002.6,Y
1586227655.2,286047001.7,P
1586227675.1,286047005.5,P
1586227676.0,286047005.5,N
1586227695.8,286047007.0,N
1586227715.6,286047007.6,N
1586227735.5,286047006.8,N
1586227755.3,286047007.4,N
1586227775.2,286047007.4,N
1586227795.9,286047004.5,N
1586227815.7,286047003.1,N
1586227835.6,286047001.7,N
1586227855.4,286047004.3,N
1586227875.2,286047001.4,N
1586227895.1,286047001.3,N
1586227896.0,286047001.3,N
1586227915.8,286047005.7,N
1586227935.7,286047003.1,N
1586227955.6,286047005.5,N
1586227975.4,286047007.0,N
1586227995.2,286047005.9,N
1586228015.1,286047003.2,N
1586228016.0,286047003.2,N
1586228035.8,286047003.3,N
1586228055.6,286047005.5,N
1586228075.5,286047001.7,N
1586228095.3,286047003.4,N
1586228115.2,286047001.3,N
1586228135.9,286047003.9,N
1586228155.7,286046999.8,N
1586228175.6,286046998.1,N
1586228195.4,286047002.3,N
1586228215.3,286047003.8,N
1586228235.1,286047003.0,N
1586228236.0,286047003.0,N
1586228255.8,286047003.0,N
1586228275.7,286047003.2,N
1586228295.5,286047004.6,N
1586228315.3,286047005.8,N
1586228335.2,286047002.7,N
1586228355.0,286047002.0,N
1586228355.9,286047002.0,N
1586228375.8,286047003.2,N
1586228395.6,286047002.9,N
